Home   Weather   El Monte   Past weeks
Flag for USA

Past Weather in El Monte, California, USA — Yesterday and Last 2 Weeks

Now
74 °F

Scattered clouds.


Feels Like: 77 °F
Forecast: 81 / 60 °F
Wind: No wind

Location: Fullerton Municipal Airport

Current Time: Jul 20, 2019 at 10:59:51 am

Latest Report: Jul 20, 2019 at 10:02 am


Visibility: 10 mi

Pressure: 29.95 "Hg

Humidity: 57%

Dew Point: 58 °F

Location of El MonteLocation

Past Weather in El Monte — Graph

°F

El Monte Temperature Yesterday

Maximum temperature yesterday: 78 °F (at 12:53 pm)
Minimum temperature yesterday: 65 °F (at 12:53 am)
Average temperature yesterday: 70 °F

High & Low Weather Summary for the Past Weeks

 TemperatureHumidityPressure
High85 °F (Jul 15, 3:53 pm)91% (Jul 16, 7:04 am)30.05 "Hg (Jul 16, 7:04 am)
Low64 °F (Jul 8, 3:53 am)42% (Jul 10, 5:53 pm)29.75 "Hg (Jul 12, 5:53 pm)
Average71 °F67%29.93 "Hg
* Reported Jul 5 10:02 am — Jul 20 10:02 am, El Monte. Weather by CustomWeather, © 2019

Note: Actual official high and low records may vary slightly from our data, if they occured in-between our weather recording intervals... More about our weather records

Advertising

El Monte Weather History for the Previous 24 Hours

Scroll right to see more
 ConditionsComfort  
Time TempWeatherWind HumidityBarometerVisibility
10:02 am
Sat, Jul 20
74 °FScattered clouds.No wind57%29.95 "Hg10 mi
8:53 am70 °FOvercast.No wind64%29.95 "Hg10 mi
7:53 am69 °FOvercast.No wind66%29.95 "Hg10 mi
6:53 am68 °FOvercast.3 mph65%29.94 "Hg10 mi
5:53 am67 °FOvercast.No wind71%29.93 "Hg10 mi
4:53 am67 °FOvercast.No wind71%29.93 "Hg10 mi
3:53 am67 °FOvercast.No wind71%29.92 "Hg10 mi
2:53 am67 °FOvercast.5 mph73%29.93 "Hg10 mi
1:53 am66 °FOvercast.3 mph78%29.93 "Hg10 mi
12:53 am66 °FPassing clouds.No wind75%29.93 "Hg10 mi
12:32 am66 °FPassing clouds.No wind75%29.93 "Hg10 mi
11:53 pm
Fri, Jul 19
66 °FClear.No wind75%29.93 "Hg10 mi
10:53 pm67 °FClear.3 mph73%29.92 "Hg10 mi
9:53 pm68 °FClear.3 mph70%29.91 "Hg10 mi
8:53 pm69 °FClear.6 mph66%29.89 "Hg10 mi
7:53 pm72 °FPassing clouds.8 mph59%29.87 "Hg10 mi
6:53 pm76 °FPassing clouds.8 mph54%29.87 "Hg10 mi
5:53 pm76 °FPassing clouds.7 mph54%29.87 "Hg10 mi
4:53 pm77 °FSunny.9 mph52%29.88 "Hg10 mi
3:53 pm77 °FPassing clouds.9 mph52%29.88 "Hg10 mi
2:53 pm77 °FSunny.10 mph52%29.90 "Hg10 mi
1:53 pm77 °FSunny.8 mph52%29.91 "Hg10 mi
12:53 pm78 °FSunny.7 mph50%29.92 "Hg10 mi
11:53 am77 °FSunny.9 mph52%29.93 "Hg10 mi
10:53 am76 °FSunny.3 mph50%29.94 "Hg10 mi
Weather by CustomWeather, © 2019

See weather overview